Temperature
6 4 4 4 4 5 5 5 5 4 4 3 2 2 2 2 2 1 1 1 2 2 3 3 3 4 4 4 4 4 4 4 4 4 4 4 4 4 4 4 4 4 4 5
4 4 4 4 4 5 4 4 4 4 4 3 2 2 2 1 1 1 1 1 1 2 2 2 3 3 3 3 3 3 3 3 3 3 3 3 4 4 4 3 3 4 4 4
4 4 4 4 4 4 4 3 3 3 3 2 2 2 1 1 1 1 0 0 1 1 1 1 2 2 2 3 3 3 3 3 3 3 3 3 3 3 3 3 3 3 3 3
3 3 4 4 3 3 4 3 3 3 2 1 2 2 1 0 -0 -1 -1 -1 -0 -0 0 0 1 1 1 2 2 2 2 2 2 2 2 2 2 2 2 2 2 2 3 3
3 3 3 3 3 3 2 2 2 2 1 1 0 1 1 -1 -0 -1 -2 -1 -1 -1 -0 -0 -0 0 0 1 1 1 1 2 2 2 1 1 1 1 2 2 2 2 2 2
2 2 2 2 2 2 1 1 1 -0 0 1 0 0 0 -1 -1 -1 -2 -2 -1 -1 -1 -1 -1 -1 -0 0 0 1 1 1 1 1 1 1 1 1 1 1 1 1 1 1
2 2 2 2 2 2 1 1 1 0 -0 0 -1 -0 -1 -2 -3 -3 -3 -2 -2 -2 -2 -2 -1 -1 -1 -1 -0 -0 0 0 0 0 0 0 -0 -0 -0 0 0 0 1 1
2 2 1 1 1 1 0 1 1 1 0 -0 -1 -1 -2 -3 -3 -3 -3 -3 -3 -3 -2 -2 -2 -2 -2 -1 -1 -1 -1 -1 -1 -1 -0 -0 -1 -1 -1 -1 -1 -1 -0 -0
1 1 1 1 1 1 0 -1 -0 -1 -2 -2 -2 -3 -3 -3 -3 -4 -4 -4 -3 -3 -3 -3 -3 -3 -3 -2 -2 -2 -2 -1 -1 -1 -1 -1 -1 -1 -1 -1 -1 -1 -1 -1
-0 0 0 -0 0 -0 -0 -1 -2 -1 -1 -1 -1 -3 -2 -3 -3 -4 -4 -4 -4 -4 -4 -4 -4 -3 -3 -3 -3 -3 -2 -2 -2 -2 -2 -2 -2 -2 -2 -2 -2 -2 -2 -2
-1 -1 -1 -1 -1 -1 -1 -2 -2 -2 -2 -1 -1 -2 -3 -4 -4 -5 -5 -5 -5 -5 -5 -4 -4 -4 -4 -4 -3 -3 -3 -3 -3 -3 -3 -3 -3 -2 -2 -2 -2 -2 -2 -2
-2 -2 -2 -2 -2 -2 -2 -3 -3 -2 -2 -3 -3 -3 -4 -5 -5 -5 -5 -5 -5 -5 -5 -5 -5 -5 -4 -4 -4 -4 -4 -4 -4 -4 -3 -3 -3 -3 -3 -3 -2 -3 -3 -2
-2 -2 -1 -1 -2 -3 -3 -4 -4 -4 -4 -4 -4 -3 -5 -6 -6 -6 -6 -6 -6 -6 -6 -5 -5 -5 -5 -5 -5 -5 -4 -4 -4 -4 -4 -4 -4 -4 -3 -3 -3 -3 -3 -3
-2 -3 -2 -1 -1 -3 -4 -5 -6 -5 -5 -5 -5 -4 -5 -5 -6 -6 -7 -6 -6 -7 -7 -6 -6 -6 -6 -6 -6 -5 -5 -5 -5 -5 -5 -4 -4 -4 -4 -4 -4 -4 -4 -4
-3 -3 -4 -4 -4 -5 -5 -5 -6 -6 -6 -5 -5 -6 -6 -6 -7 -7 -7 -7 -7 -7 -7 -7 -7 -7 -7 -7 -6 -6 -6 -6 -6 -5 -5 -5 -5 -5 -5 -5 -5 -4 -4 -4
-4 -4 -5 -5 -5 -5 -6 -6 -6 -6 -6 -7 -6 -6 -7 -8 -8 -8 -8 -8 -8 -8 -8 -8 -8 -8 -8 -7 -7 -7 -6 -6 -6 -6 -6 -6 -6 -6 -5 -5 -5 -5 -5 -5
-6 -5 -5 -5 -5 -5 -5 -6 -7 -7 -8 -7 -7 -7 -8 -9 -8 -8 -9 -9 -9 -9 -9 -9 -9 -9 -9 -8 -8 -8 -7 -7 -7 -7 -7 -6 -6 -6 -6 -6 -6 -6 -6 -5
-6 -6 -6 -6 -6 -5 -4 -8 -8 -8 -9 -9 -9 -9 -9 -9 -9 -8 -8 -9 -9 -9 -10 -10 -10 -9 -9 -9 -9 -8 -8 -8 -8 -7 -7 -7 -7 -7 -7 -7 -6 -6 -6 -6
-6 -6 -6 -6 -6 -6 -6 -8 -9 -8 -8 -9 -10 -10 -10 -10 -10 -9 -8 -9 -9 -10 -10 -10 -10 -10 -10 -9 -9 -9 -9 -8 -8 -8 -8 -8 -8 -7 -7 -7 -7 -7 -6 -6
-7 -7 -7 -7 -6 -6 -6 -8 -9 -8 -8 -9 -10 -10 -10 -10 -10 -9 -9 -10 -10 -10 -10 -10 -10 -10 -10 -10 -10 -9 -9 -9 -9 -9 -8 -8 -8 -8 -8 -8 -7 -7 -7 -7
-8 -8 -8 -7 -7 -7 -8 -9 -9 -7 -7 -9 -9 -9 -10 -11 -10 -10 -10 -10 -11 -11 -11 -11 -11 -11 -10 -10 -10 -10 -10 -10 -9 -9 -9 -9 -9 -9 -9 -8 -8 -8 -8 -8
-8 -8 -8 -8 -8 -7 -9 -10 -9 -9 -9 -9 -9 -9 -10 -10 -10 -10 -11 -11 -11 -11 -11 -11 -11 -11 -11 -11 -11 -10 -10 -10 -10 -10 -9 -9 -9 -9 -9 -9 -8 -8 -8 -8
-10 -9 -9 -9 -8 -9 -10 -9 -9 -9 -9 -9 -10 -10 -10 -10 -11 -11 -11 -11 -11 -12 -12 -12 -11 -11 -11 -11 -11 -11 -11 -11 -10 -10 -10 -10 -10 -9 -9 -9 -9 -9 -9 -9
-10 -11 -10 -11 -10 -10 -10 -9 -9 -9 -10 -10 -10 -10 -10 -11 -11 -11 -12 -12 -12 -12 -12 -12 -12 -12 -11 -11 -11 -11 -11 -11 -11 -11 -11 -10 -10 -10 -10 -10 -10 -10 -10 -10
-11 -12 -11 -11 -11 -11 -9 -9 -9 -10 -10 -10 -10 -10 -11 -11 -11 -12 -12 -12 -12 -12 -12 -12 -12 -12 -12 -12 -12 -12 -12 -12 -11 -11 -11 -11 -11 -11 -11 -11 -11 -11 -11 -11
-12 -12 -12 -10 -10 -11 -10 -9 -10 -10 -10 -10 -11 -11 -11 -11 -12 -12 -12 -12 -13 -13 -13 -12 -13 -13 -12 -12 -12 -12 -12 -12 -12 -12 -12 -12 -12 -12 -12 -11 -11 -11 -11 -11
Wind_Speed
3 4 2 5 5 4 3 4 4 4 2 1 5 8 8 4 2 2 3 2 2 3 3 3 2 2 3 3 2 1 1 1 1 1 1 1 1 0 0 1 1 1 1 1
4 2 4 2 2 2 3 3 4 3 2 1 4 8 6 3 2 2 2 2 2 2 4 4 4 3 2 2 1 2 1 1 1 1 1 1 1 1 1 1 1 1 1 0
4 2 0 2 1 1 4 5 5 4 3 2 3 6 4 2 0 1 2 2 2 2 2 3 4 4 3 2 2 2 2 1 1 0 1 1 1 1 0 1 1 2 1 1
1 2 1 1 1 2 5 3 4 4 2 4 1 5 5 2 2 2 3 3 3 3 3 3 3 4 4 4 3 2 2 1 0 1 1 1 1 1 2 2 2 2 2 2
2 1 1 1 2 2 3 1 1 2 3 3 1 3 6 2 3 3 3 4 4 3 3 3 3 3 4 4 4 3 2 1 1 0 1 1 1 2 1 1 1 2 2 2
1 0 1 2 1 1 1 3 3 3 2 4 5 5 6 3 4 3 3 3 4 4 4 4 4 4 5 5 4 4 3 2 2 1 1 2 2 2 1 2 2 2 2 2
4 2 1 1 2 3 4 4 3 4 2 6 2 4 7 3 2 2 2 3 5 4 4 4 5 5 5 6 5 5 5 4 2 2 2 2 2 2 3 3 3 3 2 3
2 5 2 1 1 2 1 4 4 4 5 5 1 6 5 1 2 1 1 2 4 5 5 4 4 4 5 5 6 6 5 5 4 3 3 3 2 2 3 3 3 4 3 4
1 4 3 2 1 3 2 2 3 3 1 3 6 5 5 1 2 3 3 4 5 6 6 5 5 5 5 5 6 5 5 5 4 4 4 3 3 3 3 3 3 3 3 4
3 4 4 3 2 3 2 4 4 3 3 5 6 5 4 4 3 3 3 4 5 6 6 6 6 6 5 5 6 6 5 5 5 4 4 4 4 3 3 3 3 4 4 4
1 2 4 2 2 3 1 2 2 2 3 4 5 5 3 4 3 2 3 4 5 5 6 6 6 5 6 6 6 6 6 5 5 5 4 4 4 4 3 4 4 4 4 4
1 2 4 5 2 1 3 3 4 3 4 4 3 6 2 1 1 1 2 4 5 5 5 5 6 6 6 7 7 6 6 6 6 6 5 5 5 4 4 4 5 4 5 5
2 2 3 5 2 2 1 1 1 2 2 3 4 6 1 2 2 2 3 4 5 6 6 6 6 7 7 7 7 7 7 7 7 6 6 6 5 5 5 5 5 5 5 5
2 3 5 6 5 2 3 2 2 4 3 4 7 8 6 5 5 5 5 5 5 6 6 7 7 7 7 7 7 8 8 7 7 6 6 6 6 5 5 5 5 5 5 5
2 2 3 5 4 2 4 5 4 6 6 7 7 6 8 6 5 5 4 5 6 7 7 8 8 8 8 8 8 8 8 8 7 6 6 7 7 6 5 5 4 4 5 5
2 1 1 3 2 1 4 6 6 6 5 6 7 10 6 4 3 3 4 5 7 8 8 8 9 9 9 9 9 10 9 9 7 7 7 7 6 6 5 5 5 4 5 5
1 2 1 4 3 4 6 5 5 4 4 5 7 6 4 4 5 5 5 6 7 8 8 9 9 9 9 9 9 10 10 8 7 7 7 7 6 6 5 5 5 5 5 5
4 3 2 2 4 5 5 1 3 3 3 4 4 4 4 6 6 5 5 5 6 7 8 9 9 9 9 9 9 9 9 8 7 7 7 7 6 6 5 5 5 5 4 4
2 4 2 1 3 7 5 1 2 2 5 3 4 5 5 5 5 4 3 2 4 6 7 8 8 9 9 10 10 9 8 8 7 7 7 7 7 6 6 5 5 5 4 5
3 3 3 2 3 6 4 1 1 1 4 2 2 4 4 4 4 5 4 5 7 7 7 8 8 8 8 9 9 8 8 8 8 8 8 7 6 6 6 6 5 5 4 5
1 1 3 4 5 7 3 1 1 2 5 3 3 4 3 3 5 6 6 7 6 7 8 8 8 8 8 9 8 8 8 8 8 8 8 7 6 6 6 5 5 4 4 4
4 4 4 3 4 6 1 2 3 4 3 3 3 3 4 5 6 6 6 7 7 8 8 8 8 8 8 8 7 8 9 9 8 8 7 7 6 6 5 4 4 4 3 4
4 5 4 6 5 2 2 2 2 2 3 4 3 4 4 4 6 6 6 6 6 7 8 7 7 8 9 8 7 8 9 9 8 8 8 7 7 6 5 4 4 4 3 3
2 1 2 3 5 4 3 3 3 3 4 5 4 4 3 4 5 6 6 6 6 7 7 7 7 8 9 9 9 8 9 8 8 8 8 7 6 6 5 4 3 3 3 3
3 2 2 4 5 5 3 3 4 4 4 4 4 4 4 4 4 4 5 6 6 7 7 7 7 8 9 9 9 9 9 8 8 8 7 7 6 5 5 4 3 3 3 3
2 3 4 5 4 3 5 4 3 4 5 5 5 5 4 3 4 4 5 5 5 6 6 7 7 8 9 9 9 9 9 8 7 7 7 6 5 5 4 4 5 6 5 7
Wind_Direction
41 78 197 218 207 201 182 202 244 255 294 226 241 259 273 281 289 290 299 298 296 293 326 0 13 30 37 32 35 62 116 105 116 125 137 149 191 246 238 12 7 29 30 72
56 237 243 228 201 201 211 238 259 287 334 265 272 269 265 259 234 239 268 280 290 331 359 1 8 13 20 19 4 12 336 159 161 192 195 199 205 229 238 357 355 1 358 346
172 234 255 132 119 205 231 221 240 258 328 339 318 290 252 259 135 15 348 332 346 356 344 345 353 354 357 348 329 325 327 276 197 112 86 72 71 46 45 332 302 316 307 309
209 300 107 133 191 180 250 236 234 245 272 279 166 284 268 262 311 336 341 349 342 348 355 347 352 349 346 337 332 327 325 320 267 136 148 165 185 226 239 245 264 301 302 299
274 344 78 197 242 187 232 335 219 218 200 272 233 231 278 329 290 295 312 326 331 337 345 343 346 341 342 348 351 336 343 335 330 205 177 204 231 233 255 266 275 282 299 295
253 253 159 207 331 156 143 53 56 59 102 262 221 200 273 242 247 295 316 328 338 342 348 347 353 359 355 359 360 357 346 332 333 311 224 216 241 253 253 266 261 273 284 281
336 331 359 52 39 35 64 75 14 349 330 253 191 209 251 259 267 256 286 326 347 352 351 349 353 356 355 354 353 351 351 333 322 306 277 247 243 240 241 241 237 249 266 267
335 303 322 14 144 185 180 146 166 227 247 282 285 237 256 284 336 343 335 343 357 354 348 343 342 344 343 344 346 345 340 332 319 298 290 273 258 250 258 259 255 242 249 255
233 273 332 358 344 143 143 178 169 153 215 274 265 279 297 340 350 360 358 3 353 347 342 339 341 345 344 341 339 334 331 329 320 308 299 291 275 274 271 267 263 265 264 263
176 269 295 319 33 28 128 148 113 148 215 260 279 270 258 275 282 311 329 334 334 338 337 336 338 337 337 336 334 333 330 325 317 310 300 298 289 276 274 271 268 267 271 268
137 224 304 337 212 220 112 118 148 175 191 206 265 270 234 230 241 264 295 318 325 328 329 329 331 333 334 334 335 335 330 326 326 316 301 291 287 279 273 269 268 269 271 270
134 140 273 264 265 101 152 171 158 195 240 208 223 269 306 215 236 263 304 323 328 330 331 333 334 337 340 339 335 331 326 322 317 315 306 293 288 285 278 276 274 273 271 267
151 132 320 327 345 24 22 211 192 169 170 195 210 260 354 32 10 345 327 325 328 332 335 340 342 341 336 333 330 326 322 317 314 313 311 300 290 282 279 279 279 276 271 271
127 167 200 235 256 215 246 245 165 157 198 226 228 254 290 308 317 323 326 323 324 326 331 336 335 333 331 329 327 324 322 316 314 313 309 304 292 281 277 278 278 275 272 269
96 221 235 254 263 238 242 248 204 200 210 219 249 250 274 283 291 300 312 323 327 330 334 334 331 329 328 328 327 325 321 318 315 312 307 302 299 291 287 284 281 278 275 271
87 211 270 277 240 249 276 263 235 229 236 245 270 277 286 301 319 311 316 319 320 323 327 328 330 331 328 326 324 323 320 316 314 308 304 305 306 299 292 289 286 283 279 277
152 157 228 272 303 327 282 250 199 208 217 207 237 260 311 319 310 303 307 311 310 316 321 325 326 324 322 320 318 315 313 314 313 307 305 304 303 300 295 294 292 286 281 278
160 160 185 295 6 261 250 78 163 207 245 233 256 286 298 294 298 295 292 294 306 317 321 321 320 320 319 316 315 313 314 314 311 310 308 304 298 295 293 290 288 287 282 276
155 160 162 185 266 273 288 245 158 217 277 236 249 283 304 316 319 304 316 327 312 312 312 311 313 313 315 316 316 318 318 316 316 314 310 307 301 293 291 286 283 283 284 279
64 107 149 164 225 252 267 293 284 124 286 277 246 283 305 344 327 303 331 330 321 319 318 319 319 318 319 318 321 320 318 319 316 312 308 305 300 292 286 284 285 287 283 279
90 128 190 205 232 264 277 294 108 175 271 305 282 287 291 271 263 290 314 318 319 317 318 321 321 322 320 321 323 321 319 316 311 312 314 313 305 295 287 287 287 285 281 282
186 186 202 181 217 259 286 118 187 239 299 308 303 293 286 282 294 306 313 317 323 324 325 327 327 325 325 327 328 324 320 316 318 321 323 320 312 304 305 297 296 291 280 278
200 199 197 197 220 259 165 205 259 293 289 297 298 294 290 292 299 309 313 316 319 321 323 327 325 324 328 331 332 325 320 323 326 328 326 322 321 319 315 305 303 305 299 292
267 223 204 251 269 263 255 271 287 282 278 286 289 290 287 287 291 302 310 315 321 322 324 326 328 329 330 333 334 325 322 327 328 327 326 325 325 327 328 322 317 312 303 297
249 179 221 261 287 308 292 273 284 296 303 309 312 298 286 284 291 298 306 312 317 321 325 328 330 328 326 330 330 330 332 331 330 328 328 330 330 326 326 324 312 307 299 297
205 186 197 241 252 243 277 306 311 307 309 310 314 316 313 295 290 303 307 312 317 321 326 330 330 328 327 330 330 332 333 332 331 332 333 332 331 330 329 328 328 328 325 323
Height
1486 1492 1496 1495 1495 1495 1497 1499 1500 1498 1497 1498 1499 1497 1494 1493 1493 1493 1492 1492 1492 1492 1493 1493 1493 1493 1494 1495 1496 1497 1498 1499 1500 1500 1501 1502 1502 1503 1504 1504 1504 1504 1504 1505
1492 1495 1493 1494 1495 1496 1497 1499 1500 1498 1497 1498 1499 1497 1493 1491 1491 1491 1491 1490 1490 1491 1490 1491 1491 1491 1491 1492 1492 1493 1495 1496 1497 1497 1498 1499 1499 1500 1500 1501 1501 1501 1501 1502
1492 1494 1493 1494 1496 1496 1497 1499 1499 1500 1499 1499 1500 1494 1492 1490 1490 1490 1490 1490 1489 1489 1489 1489 1488 1489 1489 1489 1489 1490 1491 1493 1494 1495 1495 1496 1496 1496 1497 1497 1497 1498 1498 1498
1494 1493 1493 1494 1496 1496 1496 1496 1497 1498 1502 1504 1502 1502 1492 1491 1491 1490 1490 1489 1488 1488 1488 1488 1487 1487 1487 1487 1488 1488 1489 1490 1491 1491 1492 1492 1492 1492 1492 1493 1493 1494 1494 1495
1494 1494 1494 1494 1495 1496 1496 1496 1497 1498 1502 1506 1505 1506 1494 1492 1491 1490 1489 1489 1488 1488 1487 1487 1486 1486 1486 1486 1486 1486 1486 1487 1487 1488 1488 1488 1488 1489 1489 1489 1490 1490 1490 1491
1495 1494 1494 1494 1494 1495 1496 1498 1500 1503 1505 1505 1503 1504 1495 1495 1491 1490 1489 1488 1487 1487 1487 1486 1486 1485 1484 1484 1484 1484 1483 1484 1484 1485 1485 1485 1485 1485 1485 1485 1485 1486 1487 1487
1496 1495 1494 1494 1495 1496 1497 1502 1507 1508 1512 1503 1503 1502 1496 1493 1491 1490 1490 1489 1488 1487 1486 1485 1484 1483 1483 1482 1482 1481 1481 1481 1481 1481 1481 1481 1481 1481 1481 1481 1481 1482 1482 1483
1500 1499 1496 1496 1496 1499 1500 1501 1507 1509 1510 1506 1505 1503 1495 1492 1491 1490 1489 1489 1488 1487 1486 1485 1484 1483 1482 1481 1480 1479 1478 1478 1478 1478 1478 1478 1478 1477 1477 1478 1477 1478 1478 1479
1504 1501 1498 1496 1496 1497 1500 1504 1504 1511 1514 1515 1505 1503 1496 1491 1490 1490 1489 1488 1488 1487 1485 1484 1483 1482 1480 1479 1478 1477 1476 1475 1475 1475 1474 1474 1474 1474 1474 1474 1474 1474 1474 1475
1504 1505 1500 1498 1497 1498 1499 1502 1508 1510 1509 1507 1502 1504 1498 1492 1491 1490 1490 1489 1488 1487 1485 1483 1482 1480 1479 1478 1476 1475 1474 1473 1472 1472 1471 1470 1470 1470 1470 1470 1470 1470 1470 1470
1505 1506 1503 1501 1501 1500 1502 1504 1505 1508 1508 1507 1506 1500 1492 1491 1490 1490 1490 1489 1488 1486 1484 1482 1481 1479 1477 1476 1474 1473 1471 1470 1469 1469 1468 1467 1466 1466 1466 1466 1465 1465 1465 1465
1505 1508 1508 1503 1501 1501 1503 1505 1508 1507 1506 1510 1509 1503 1490 1490 1489 1490 1489 1488 1487 1486 1484 1482 1480 1477 1475 1473 1472 1470 1469 1467 1466 1465 1464 1463 1463 1462 1461 1461 1461 1461 1461 1461
1505 1508 1507 1500 1504 1506 1506 1508 1509 1509 1509 1512 1510 1502 1491 1490 1490 1489 1489 1487 1486 1484 1482 1480 1478 1476 1473 1471 1469 1468 1466 1465 1463 1462 1460 1459 1458 1458 1457 1457 1457 1456 1456 1456
1502 1506 1508 1504 1501 1505 1508 1509 1510 1510 1510 1511 1508 1498 1492 1491 1490 1489 1488 1487 1485 1483 1481 1478 1476 1474 1472 1469 1467 1465 1463 1461 1460 1458 1456 1455 1454 1453 1453 1452 1452 1452 1452 1451
1502 1507 1509 1507 1505 1506 1506 1506 1507 1508 1506 1505 1498 1498 1492 1491 1491 1489 1487 1486 1484 1482 1479 1477 1475 1472 1469 1466 1464 1461 1459 1458 1456 1454 1452 1451 1450 1449 1449 1448 1448 1447 1447 1447
1504 1507 1509 1507 1503 1505 1505 1502 1503 1504 1504 1503 1499 1496 1491 1490 1489 1488 1486 1485 1482 1480 1478 1475 1473 1470 1467 1464 1461 1458 1455 1454 1452 1450 1448 1447 1446 1445 1444 1444 1443 1443 1443 1442
1507 1509 1508 1505 1505 1502 1501 1498 1500 1502 1501 1500 1498 1494 1491 1489 1488 1487 1485 1483 1481 1479 1476 1474 1471 1468 1464 1461 1458 1455 1452 1450 1448 1446 1444 1443 1442 1441 1440 1439 1439 1438 1438 1437
1506 1508 1509 1510 1509 1506 1496 1497 1497 1498 1498 1497 1495 1493 1491 1489 1487 1485 1484 1482 1479 1477 1474 1472 1468 1465 1462 1459 1455 1452 1449 1447 1444 1442 1440 1439 1437 1436 1435 1435 1434 1434 1433 1433
1503 1506 1510 1512 1513 1505 1497 1497 1498 1498 1495 1493 1493 1491 1490 1487 1484 1482 1481 1480 1478 1476 1473 1470 1466 1463 1459 1456 1452 1449 1446 1444 1441 1439 1437 1435 1433 1432 1431 1430 1429 1429 1429 1428
1505 1506 1510 1513 1509 1504 1495 1497 1495 1498 1495 1491 1490 1489 1488 1487 1486 1482 1480 1478 1476 1473 1470 1467 1463 1460 1456 1453 1450 1446 1443 1440 1438 1435 1433 1431 1430 1428 1427 1426 1425 1425 1424 1424
1510 1511 1512 1511 1510 1502 1498 1496 1496 1499 1493 1490 1488 1487 1487 1486 1485 1481 1478 1475 1473 1470 1467 1464 1460 1457 1453 1450 1447 1443 1440 1437 1435 1432 1430 1428 1426 1425 1423 1422 1421 1421 1420 1420
1509 1510 1511 1511 1511 1504 1497 1496 1497 1494 1490 1489 1487 1486 1484 1483 1480 1478 1475 1473 1470 1467 1464 1461 1457 1454 1451 1447 1444 1440 1437 1435 1432 1429 1427 1425 1423 1421 1419 1418 1417 1417 1416 1415
1508 1506 1505 1506 1501 1496 1494 1493 1492 1491 1489 1487 1486 1484 1482 1479 1477 1475 1472 1470 1467 1464 1461 1458 1455 1451 1448 1445 1442 1438 1435 1432 1429 1427 1424 1422 1420 1418 1416 1415 1414 1413 1413 1412
1504 1503 1503 1502 1495 1493 1492 1491 1490 1489 1488 1486 1484 1481 1479 1477 1474 1472 1470 1467 1465 1462 1459 1456 1452 1449 1445 1442 1439 1436 1433 1430 1427 1424 1422 1419 1417 1415 1413 1412 1411 1410 1409 1409
1501 1502 1501 1499 1494 1491 1488 1488 1487 1486 1485 1483 1481 1479 1477 1475 1472 1470 1467 1465 1463 1460 1457 1454 1450 1447 1444 1441 1437 1435 1432 1429 1426 1423 1420 1418 1415 1413 1411 1410 1409 1408 1407 1407
1498 1499 1499 1495 1492 1491 1488 1487 1486 1484 1482 1480 1478 1476 1474 1472 1470 1467 1465 1463 1461 1458 1455 1452 1449 1445 1442 1439 1436 1433 1430 1427 1424 1421 1419 1416 1414 1412 1410 1408 1407 1406 1406 1405